DAL428 KLAX-PHLI

Flight info

Callsign DAL428
Flight time N/A
Altitude 32000
Route SUMMR2 FICKY WEDES 27N130W 25N140W 21N150W FITES SWEEP V11 OGG VIRAY ZIKAB NAGAI LYDAT UWEHE LIH
Aircraft A21N/M-SDE2E3FGHIRWXY/LB1

Departure

Time 2026-04-25 01:50
Airport Los Angeles International Airport (KLAX)

Arrival

Time N/A
Airport Lihue Airport (PHLI)
Time Latitude Longitude Altitude Speed Heading
2026-04-25 01:01 33.94737 -118.40387 126 ft 0 kts 207°
2026-04-25 01:42 33.94740 -118.40385 126 ft 2 kts 206°
2026-04-25 01:42 33.94757 -118.40375 122 ft 3 kts 197°
2026-04-25 01:43 33.94776 -118.40369 123 ft 3 kts 177°
2026-04-25 01:43 33.94794 -118.40371 122 ft 3 kts 139°
2026-04-25 01:43 33.94804 -118.40382 121 ft 2 kts 85°
2026-04-25 01:43 33.94804 -118.40386 121 ft 1 kts 82°
2026-04-25 01:46 33.94804 -118.40385 121 ft 2 kts 82°
2026-04-25 01:47 33.94826 -118.40311 123 ft 17 kts 56°
2026-04-25 01:47 33.94901 -118.40234 122 ft 16 kts 73°
2026-04-25 01:47 33.94919 -118.40086 123 ft 20 kts 84°
2026-04-25 01:47 33.94937 -118.39961 124 ft 13 kts 71°
2026-04-25 01:48 33.94961 -118.39923 123 ft 0 kts 43°
2026-04-25 01:49 33.94989 -118.39915 123 ft 14 kts
2026-04-25 01:49 33.95032 -118.40026 124 ft 33 kts 264°
2026-04-25 01:49 33.94979 -118.40576 124 ft 99 kts 262°
2026-04-25 01:49 33.94872 -118.41638 174 ft 152 kts 262°
2026-04-25 01:50 33.94498 -118.42875 723 ft 167 kts 228°
2026-04-25 01:50 33.93699 -118.44125 720 ft 217 kts 250°
2026-04-25 01:50 33.93283 -118.46035 877 ft 263 kts 260°
2026-04-25 01:51 33.93164 -118.47160 1212 ft 279 kts 264°
2026-04-25 01:51 33.92905 -118.49424 2853 ft 265 kts 262°
2026-04-25 01:51 33.92680 -118.51680 3961 ft 284 kts 264°
2026-04-25 01:51 33.92475 -118.54206 4356 ft 322 kts 264°
2026-04-25 01:52 33.92247 -118.57050 4693 ft 361 kts 264°
2026-04-25 01:52 33.91957 -118.60231 4838 ft 403 kts 263°
2026-04-25 01:52 33.91796 -118.63776 4903 ft 444 kts 269°
2026-04-25 01:52 33.91750 -118.67652 4917 ft 482 kts 269°
2026-04-25 01:53 33.91734 -118.71501 4917 ft 446 kts 270°
2026-04-25 01:53 33.91722 -118.75017 4921 ft 407 kts 270°
2026-04-25 01:53 33.91709 -118.78211 4908 ft 363 kts 269°
2026-04-25 01:53 33.91652 -118.81133 4925 ft 336 kts 270°
2026-04-25 01:54 33.91702 -118.83741 4938 ft 313 kts 271°
2026-04-25 01:54 33.91772 -118.86273 4942 ft 291 kts 272°
2026-04-25 01:54 33.91845 -118.88623 4940 ft 271 kts 272°
2026-04-25 01:54 33.91915 -118.90846 4948 ft 263 kts 272°
2026-04-25 01:55 33.91983 -118.93057 5021 ft 265 kts 272°
2026-04-25 01:55 33.92050 -118.95273 5528 ft 265 kts 272°
2026-04-25 01:55 33.92117 -118.97498 6382 ft 266 kts 271°
2026-04-25 01:55 33.91960 -118.99719 7242 ft 269 kts 258°
2026-04-25 01:56 33.91496 -119.01910 8095 ft 272 kts 254°
2026-04-25 01:56 33.90945 -119.04076 8946 ft 275 kts 253°
2026-04-25 01:56 33.90347 -119.06268 9818 ft 277 kts 252°
2026-04-25 01:56 33.89705 -119.08493 10496 ft 288 kts 250°
2026-04-25 01:57 33.88023 -119.13255 11343 ft 328 kts 248°
2026-04-25 01:57 33.87086 -119.15840 11963 ft 345 kts 248°
2026-04-25 01:57 33.86103 -119.18541 12665 ft 359 kts 248°
2026-04-25 01:58 33.85093 -119.21315 13662 ft 364 kts 248°
2026-04-25 01:58 33.84073 -119.24114 14654 ft 366 kts 248°
2026-04-25 01:58 33.83045 -119.26932 15617 ft 369 kts 248°
2026-04-25 01:58 33.82008 -119.29769 16565 ft 372 kts 248°
2026-04-25 01:59 33.80669 -119.32449 17468 ft 380 kts 233°
2026-04-25 01:59 33.78840 -119.34784 18346 ft 386 kts 228°
2026-04-25 01:59 33.76899 -119.37036 19121 ft 390 kts 227°
2026-04-25 01:59 33.74901 -119.39275 19874 ft 394 kts 227°
2026-04-25 02:00 33.72866 -119.41517 20604 ft 399 kts 226°
2026-04-25 02:00 33.70724 -119.43671 21336 ft 405 kts 223°
2026-04-25 02:00 33.68498 -119.45784 22055 ft 410 kts 223°
2026-04-25 02:00 33.66242 -119.47906 22773 ft 414 kts 223°
2026-04-25 02:01 33.63991 -119.50016 23457 ft 418 kts 223°
2026-04-25 02:01 33.61684 -119.52177 24073 ft 422 kts 223°
2026-04-25 02:01 33.59704 -119.54028 24614 ft 424 kts 223°
2026-04-25 02:01 33.57369 -119.56210 25247 ft 427 kts 223°
2026-04-25 02:02 33.55021 -119.58402 25868 ft 429 kts 223°
2026-04-25 02:02 33.52656 -119.60609 26487 ft 432 kts 223°
2026-04-25 02:02 33.50291 -119.62814 27304 ft 429 kts 223°
2026-04-25 02:02 33.47948 -119.64996 28178 ft 425 kts 223°
2026-04-25 02:03 33.45622 -119.67162 29046 ft 421 kts 223°
2026-04-25 02:03 33.43316 -119.69309 29871 ft 418 kts 223°
2026-04-25 02:03 33.41028 -119.71436 30586 ft 415 kts 223°
2026-04-25 02:03 33.38764 -119.73539 31255 ft 412 kts 224°
2026-04-25 02:04 33.36484 -119.75659 31617 ft 417 kts 224°
2026-04-25 02:04 33.34174 -119.77805 31820 ft 425 kts 224°
2026-04-25 02:04 33.31798 -119.80008 31913 ft 436 kts 223°
2026-04-25 02:05 33.26974 -119.84473 31960 ft 442 kts 223°
2026-04-25 02:05 33.22101 -119.88980 31975 ft 442 kts 223°
2026-04-25 02:06 33.17235 -119.93475 31983 ft 442 kts 223°
2026-04-25 02:06 33.12361 -119.97971 31989 ft 442 kts 223°
2026-04-25 02:07 33.07496 -120.02451 31996 ft 441 kts 223°
2026-04-25 02:07 33.02632 -120.06924 31999 ft 441 kts 223°
2026-04-25 02:08 32.97841 -120.11324 32000 ft 441 kts 223°
2026-04-25 02:08 32.92972 -120.15789 32001 ft 441 kts 223°
2026-04-25 02:09 32.88108 -120.20244 32007 ft 440 kts 223°
2026-04-25 02:09 32.83237 -120.24697 32010 ft 441 kts 223°
2026-04-25 02:10 32.78404 -120.29111 32008 ft 441 kts 223°
2026-04-25 02:10 32.73539 -120.33547 32013 ft 441 kts 223°
2026-04-25 02:11 32.68673 -120.37978 32014 ft 441 kts 223°
2026-04-25 02:11 32.63799 -120.42410 32013 ft 441 kts 223°
2026-04-25 02:12 32.58926 -120.46835 32017 ft 441 kts 223°
2026-04-25 02:12 32.54053 -120.51258 32022 ft 441 kts 223°
2026-04-25 02:13 32.49173 -120.55681 32022 ft 441 kts 223°
2026-04-25 02:13 32.44297 -120.60095 32024 ft 441 kts 223°
2026-04-25 02:14 32.39450 -120.64475 32026 ft 441 kts 223°
2026-04-25 02:14 32.34558 -120.68891 32028 ft 441 kts 223°
2026-04-25 02:15 32.29678 -120.73290 32030 ft 441 kts 223°
2026-04-25 02:15 32.24798 -120.77682 32029 ft 441 kts 223°
2026-04-25 02:16 32.19920 -120.82067 32033 ft 441 kts 223°
2026-04-25 02:16 32.15067 -120.86422 32032 ft 441 kts 223°
2026-04-25 02:17 32.10186 -120.90798 32038 ft 440 kts 223°
2026-04-25 02:17 32.05299 -120.95172 32036 ft 440 kts 223°
2026-04-25 02:18 32.00417 -120.99536 32039 ft 440 kts 222°
2026-04-25 02:18 31.95538 -121.03891 32043 ft 440 kts 222°
2026-04-25 02:19 31.90659 -121.08241 32042 ft 440 kts 222°
2026-04-25 02:19 31.85804 -121.12563 32043 ft 440 kts 222°
2026-04-25 02:20 31.80921 -121.16904 32042 ft 440 kts 222°
2026-04-25 02:20 31.76033 -121.21243 32045 ft 440 kts 222°
2026-04-25 02:21 31.71150 -121.25574 32044 ft 440 kts 222°
2026-04-25 02:21 31.66266 -121.29898 32048 ft 439 kts 222°
2026-04-25 02:22 31.62206 -121.33488 32048 ft 439 kts 222°
2026-04-25 02:22 31.57484 -121.37986 32062 ft 432 kts 232°
2026-04-25 02:23 31.53801 -121.43538 32053 ft 430 kts 236°
2026-04-25 02:23 31.50606 -121.49445 32054 ft 429 kts 241°
2026-04-25 02:24 31.47562 -121.55471 32055 ft 429 kts 241°
2026-04-25 02:24 31.44531 -121.61483 32052 ft 429 kts 241°
2026-04-25 02:25 31.41496 -121.67492 32056 ft 429 kts 241°
2026-04-25 02:25 31.38453 -121.73506 32058 ft 429 kts 241°
2026-04-25 02:26 31.35430 -121.79471 32058 ft 429 kts 241°
2026-04-25 02:26 31.32383 -121.85472 32060 ft 429 kts 241°
2026-04-25 02:27 31.29331 -121.91476 32061 ft 429 kts 241°
2026-04-25 02:27 31.26282 -121.97464 32062 ft 429 kts 241°
2026-04-25 02:28 31.23222 -122.03463 32061 ft 429 kts 240°
2026-04-25 02:28 31.20162 -122.09454 32064 ft 429 kts 240°
2026-04-25 02:29 31.17102 -122.15434 32063 ft 429 kts 240°
2026-04-25 02:29 31.14061 -122.21370 32065 ft 429 kts 240°
2026-04-25 02:30 31.10996 -122.27341 32064 ft 429 kts 240°
2026-04-25 02:30 31.07931 -122.33305 32064 ft 429 kts 240°
2026-04-25 02:31 31.04862 -122.39265 32067 ft 429 kts 240°
2026-04-25 02:31 31.01788 -122.45229 32070 ft 429 kts 240°
2026-04-25 02:32 30.98714 -122.51182 32069 ft 428 kts 240°
2026-04-25 02:32 30.95637 -122.57131 32070 ft 429 kts 240°
2026-04-25 02:33 30.92554 -122.63084 32076 ft 429 kts 240°
2026-04-25 02:33 30.89528 -122.68917 32076 ft 428 kts 240°
2026-04-25 02:34 30.86441 -122.74859 32076 ft 429 kts 240°
2026-04-25 02:34 30.83353 -122.80794 32073 ft 429 kts 240°
2026-04-25 02:35 30.80277 -122.86696 32073 ft 429 kts 240°
2026-04-25 02:35 30.77185 -122.92622 32079 ft 429 kts 240°
2026-04-25 02:36 30.74086 -122.98550 32081 ft 429 kts 240°
2026-04-25 02:36 30.70986 -123.04473 32079 ft 429 kts 239°
2026-04-25 02:37 30.67852 -123.10380 32083 ft 429 kts 240°
2026-04-25 02:37 30.64875 -123.16377 32079 ft 429 kts 241°
2026-04-25 02:38 30.61942 -123.22361 32081 ft 429 kts 241°
2026-04-25 02:38 30.58988 -123.28378 32082 ft 428 kts 241°
2026-04-25 02:39 30.56032 -123.34388 32080 ft 428 kts 241°
2026-04-25 02:39 30.53077 -123.40388 32084 ft 428 kts 241°
2026-04-25 02:40 30.50117 -123.46386 32090 ft 428 kts 240°
2026-04-25 02:40 30.47154 -123.52381 32090 ft 428 kts 240°
2026-04-25 02:41 30.44204 -123.58342 32089 ft 428 kts 240°
2026-04-25 02:41 30.41236 -123.64329 32085 ft 428 kts 240°
2026-04-25 02:42 30.38261 -123.70321 32088 ft 428 kts 240°
2026-04-25 02:42 30.35286 -123.76304 32093 ft 428 kts 240°
2026-04-25 02:43 30.32311 -123.82279 32091 ft 428 kts 240°
2026-04-25 02:43 30.29330 -123.88255 32089 ft 428 kts 240°
2026-04-25 02:44 30.26349 -123.94223 32091 ft 429 kts 240°
2026-04-25 02:44 30.23382 -124.00154 32092 ft 429 kts 240°
2026-04-25 02:45 30.20390 -124.06126 32083 ft 429 kts 240°
2026-04-25 02:45 30.17393 -124.12098 32094 ft 429 kts 240°
2026-04-25 02:46 30.14401 -124.18052 32091 ft 428 kts 240°
2026-04-25 02:46 30.11421 -124.23974 32089 ft 428 kts 240°
2026-04-25 02:47 30.08424 -124.29918 32095 ft 428 kts 240°
2026-04-25 02:47 30.05422 -124.35866 32093 ft 428 kts 240°
2026-04-25 02:48 30.02418 -124.41809 32095 ft 428 kts 240°
2026-04-25 02:48 29.99408 -124.47754 32091 ft 428 kts 240°
2026-04-25 02:49 29.96399 -124.53687 32097 ft 428 kts 239°
2026-04-25 02:49 29.93408 -124.59578 32094 ft 428 kts 239°
2026-04-25 02:50 29.90391 -124.65510 32096 ft 428 kts 239°
2026-04-25 02:50 29.87372 -124.71436 32099 ft 428 kts 239°
2026-04-25 02:51 29.84354 -124.77354 32092 ft 428 kts 239°
2026-04-25 02:51 29.81351 -124.83232 32099 ft 428 kts 239°
2026-04-25 02:52 29.78327 -124.89143 32098 ft 428 kts 239°
2026-04-25 02:52 29.75300 -124.95051 32100 ft 428 kts 239°
2026-04-25 02:53 29.72273 -125.00952 32099 ft 428 kts 239°
2026-04-25 02:53 29.69243 -125.06848 32094 ft 428 kts 239°
2026-04-25 02:54 29.66215 -125.12732 32103 ft 427 kts 239°
2026-04-25 02:54 29.63185 -125.18611 32109 ft 427 kts 239°
2026-04-25 02:55 29.60172 -125.24449 32100 ft 427 kts 239°
2026-04-25 02:55 29.57130 -125.30335 32098 ft 427 kts 239°
2026-04-25 02:56 29.54091 -125.36207 32109 ft 427 kts 239°
2026-04-25 02:56 29.51052 -125.42070 32105 ft 427 kts 239°
2026-04-25 02:57 29.48010 -125.47929 32107 ft 427 kts 239°
2026-04-25 02:57 29.44983 -125.53751 32107 ft 427 kts 239°
2026-04-25 02:58 29.41934 -125.59608 32108 ft 427 kts 239°
2026-04-25 02:58 29.38884 -125.65459 32110 ft 427 kts 239°
2026-04-25 02:59 29.35830 -125.71309 32109 ft 427 kts 239°
2026-04-25 02:59 29.32779 -125.77144 32112 ft 427 kts 239°
2026-04-25 03:00 29.29726 -125.82974 32109 ft 427 kts 239°
2026-04-25 03:00 29.26689 -125.88767 32108 ft 426 kts 239°
2026-04-25 03:01 29.23633 -125.94588 32108 ft 426 kts 239°
2026-04-25 03:01 29.20576 -126.00399 32109 ft 426 kts 238°
2026-04-25 03:02 29.17515 -126.06212 32104 ft 426 kts 238°
2026-04-25 03:02 29.14459 -126.12008 32109 ft 425 kts 238°
2026-04-25 03:03 29.11419 -126.17766 32111 ft 425 kts 238°
2026-04-25 03:03 29.08351 -126.23568 32108 ft 425 kts 238°
2026-04-25 03:04 29.05286 -126.29356 32111 ft 425 kts 238°
2026-04-25 03:04 29.02221 -126.35134 32109 ft 425 kts 238°
2026-04-25 03:05 28.97621 -126.43794 32110 ft 425 kts 238°
2026-04-25 03:05 28.94570 -126.49528 32111 ft 425 kts 238°
2026-04-25 03:06 28.91498 -126.55292 32110 ft 424 kts 238°
2026-04-25 03:06 28.88421 -126.61058 32114 ft 424 kts 238°
2026-04-25 03:07 28.85345 -126.66815 32114 ft 424 kts 238°
2026-04-25 03:07 28.82288 -126.72527 32114 ft 424 kts 238°
2026-04-25 03:08 28.79207 -126.78278 32115 ft 424 kts 238°
2026-04-25 03:08 28.76128 -126.84015 32117 ft 424 kts 238°
2026-04-25 03:09 28.73049 -126.89745 32113 ft 424 kts 238°
2026-04-25 03:09 28.69982 -126.95445 32110 ft 424 kts 238°
2026-04-25 03:10 28.66895 -127.01174 32115 ft 424 kts 238°
2026-04-25 03:10 28.64329 -127.05932 32116 ft 424 kts 238°
2026-04-25 03:11 28.61243 -127.11644 32118 ft 424 kts 238°
2026-04-25 03:11 28.58149 -127.17365 32110 ft 424 kts 238°
2026-04-25 03:12 28.55055 -127.23077 32106 ft 424 kts 238°
2026-04-25 03:12 28.51959 -127.28785 32111 ft 424 kts 238°
2026-04-25 03:13 28.48860 -127.34491 32112 ft 424 kts 238°
2026-04-25 03:13 28.45761 -127.40189 32111 ft 423 kts 238°
2026-04-25 03:14 28.42684 -127.45841 32115 ft 423 kts 237°
2026-04-25 03:14 28.39579 -127.51533 32116 ft 423 kts 237°
2026-04-25 03:15 28.36484 -127.57203 32111 ft 423 kts 237°
2026-04-25 03:15 28.33382 -127.62876 32112 ft 422 kts 237°
2026-04-25 03:16 28.30279 -127.68543 32111 ft 422 kts 237°
2026-04-25 03:16 28.27177 -127.74201 32110 ft 422 kts 237°
2026-04-25 03:17 28.24074 -127.79854 32118 ft 422 kts 237°
2026-04-25 03:17 28.20966 -127.85508 32117 ft 422 kts 237°
2026-04-25 03:18 28.17873 -127.91126 32117 ft 422 kts 237°
2026-04-25 03:18 28.14761 -127.96773 32115 ft 422 kts 237°
2026-04-25 03:19 28.11647 -128.02416 32109 ft 422 kts 237°
2026-04-25 03:19 28.08528 -128.08060 32112 ft 422 kts 237°
2026-04-25 03:20 28.05427 -128.13663 32112 ft 422 kts 237°
2026-04-25 03:20 28.02312 -128.19285 32113 ft 422 kts 237°
2026-04-25 03:21 27.99194 -128.24906 32111 ft 421 kts 237°
2026-04-25 03:21 27.96074 -128.30522 32118 ft 421 kts 237°
2026-04-25 03:22 27.92956 -128.36128 32115 ft 421 kts 237°
2026-04-25 03:22 27.89837 -128.41728 32120 ft 420 kts 237°
2026-04-25 03:23 27.86720 -128.47317 32119 ft 420 kts 237°
2026-04-25 03:23 27.83603 -128.52898 32124 ft 420 kts 237°
2026-04-25 03:24 27.80502 -128.58444 32116 ft 420 kts 237°
2026-04-25 03:24 27.77385 -128.64011 32113 ft 419 kts 237°
2026-04-25 03:25 27.74264 -128.69579 32122 ft 419 kts 237°
2026-04-25 03:25 27.71145 -128.75134 32117 ft 419 kts 237°
2026-04-25 03:26 27.68019 -128.80697 32121 ft 419 kts 237°
2026-04-25 03:26 27.64899 -128.86242 32114 ft 419 kts 237°
2026-04-25 03:27 27.61773 -128.91789 32121 ft 419 kts 237°
2026-04-25 03:27 27.58651 -128.97324 32119 ft 418 kts 237°
2026-04-25 03:28 27.55547 -129.02817 32111 ft 418 kts 237°
2026-04-25 03:28 27.52418 -129.08350 32116 ft 418 kts 237°
2026-04-25 03:29 27.49288 -129.13876 32111 ft 418 kts 237°
2026-04-25 03:29 27.46158 -129.19396 32119 ft 418 kts 237°
2026-04-25 03:30 27.43023 -129.24918 32113 ft 418 kts 237°
2026-04-25 03:30 27.39887 -129.30434 32109 ft 418 kts 237°
2026-04-25 03:31 27.36747 -129.35951 32117 ft 418 kts 237°
2026-04-25 03:31 27.33606 -129.41462 32108 ft 418 kts 237°
2026-04-25 03:32 27.30481 -129.46937 32102 ft 418 kts 237°
2026-04-25 03:32 27.27331 -129.52451 32107 ft 418 kts 237°
2026-04-25 03:33 27.24182 -129.57957 32108 ft 418 kts 237°
2026-04-25 03:33 27.21031 -129.63458 32113 ft 419 kts 237°
2026-04-25 03:34 27.17875 -129.68961 32108 ft 419 kts 237°
2026-04-25 03:34 27.14718 -129.74458 32111 ft 419 kts 237°
2026-04-25 03:35 27.11579 -129.79917 32108 ft 419 kts 237°
2026-04-25 03:35 27.08411 -129.85421 32109 ft 419 kts 237°
2026-04-25 03:36 27.05239 -129.90925 32112 ft 419 kts 237°
2026-04-25 03:36 27.02078 -129.96427 32101 ft 419 kts 240°
2026-04-25 03:37 27.00070 -130.02535 32106 ft 422 kts 251°
2026-04-25 03:37 26.98595 -130.08862 32113 ft 424 kts 256°
2026-04-25 03:38 26.97495 -130.15374 32110 ft 424 kts 256°
2026-04-25 03:38 26.96430 -130.21886 32111 ft 424 kts 256°
2026-04-25 03:39 26.95363 -130.28395 32109 ft 425 kts 256°
2026-04-25 03:39 26.94314 -130.34773 32106 ft 425 kts 256°
2026-04-25 03:40 26.93239 -130.41289 32107 ft 425 kts 256°
2026-04-25 03:40 26.92160 -130.47804 32104 ft 425 kts 256°
2026-04-25 03:41 26.91077 -130.54327 32109 ft 425 kts 256°
2026-04-25 03:41 26.89992 -130.60843 32105 ft 425 kts 256°
2026-04-25 03:42 26.88910 -130.67321 32108 ft 425 kts 256°
2026-04-25 03:42 26.87818 -130.73842 32107 ft 426 kts 256°
2026-04-25 03:43 26.86721 -130.80369 32107 ft 426 kts 256°
2026-04-25 03:43 26.85620 -130.86902 32105 ft 427 kts 256°
2026-04-25 03:44 26.84515 -130.93442 32111 ft 427 kts 256°
2026-04-25 03:44 26.83413 -130.99944 32106 ft 428 kts 256°
2026-04-25 03:45 26.82300 -131.06494 32106 ft 428 kts 256°
2026-04-25 03:45 26.81182 -131.13052 32107 ft 429 kts 256°
2026-04-25 03:46 26.80061 -131.19610 32104 ft 429 kts 257°
2026-04-25 03:46 26.78934 -131.26181 32099 ft 430 kts 257°
2026-04-25 03:47 26.77809 -131.32723 32103 ft 431 kts 257°
2026-04-25 03:47 26.76673 -131.39313 32103 ft 431 kts 257°
2026-04-25 03:48 26.75531 -131.45916 32102 ft 432 kts 257°
2026-04-25 03:48 26.74386 -131.52517 32099 ft 432 kts 257°
2026-04-25 03:49 26.73238 -131.59118 32102 ft 433 kts 257°
2026-04-25 03:49 26.72086 -131.65725 32102 ft 433 kts 257°
2026-04-25 03:50 26.70927 -131.72347 32100 ft 433 kts 257°
2026-04-25 03:50 26.69773 -131.78928 32101 ft 434 kts 257°
2026-04-25 03:51 26.68606 -131.85561 32102 ft 435 kts 257°
2026-04-25 03:51 26.67434 -131.92201 32099 ft 435 kts 257°
2026-04-25 03:52 26.66257 -131.98851 32099 ft 436 kts 257°
2026-04-25 03:52 26.65078 -132.05501 32097 ft 436 kts 257°
2026-04-25 03:53 26.63892 -132.12162 32100 ft 437 kts 257°
2026-04-25 03:53 26.62709 -132.18795 32096 ft 438 kts 257°
2026-04-25 03:54 26.61511 -132.25485 32097 ft 439 kts 257°
2026-04-25 03:54 26.60309 -132.32187 32096 ft 440 kts 257°
2026-04-25 03:55 26.59101 -132.38901 32097 ft 441 kts 258°
2026-04-25 03:55 26.57887 -132.45628 32093 ft 442 kts 258°
2026-04-25 03:56 26.56666 -132.52370 32093 ft 443 kts 258°
2026-04-25 03:56 26.55442 -132.59121 32093 ft 443 kts 258°
2026-04-25 03:57 26.54213 -132.65872 32094 ft 444 kts 258°
2026-04-25 03:57 26.53188 -132.71489 32089 ft 444 kts 258°
2026-04-25 03:58 26.51950 -132.78258 32091 ft 445 kts 258°
2026-04-25 03:58 26.50505 -132.86130 32094 ft 445 kts 258°
2026-04-25 03:59 26.49461 -132.91806 32096 ft 445 kts 258°
2026-04-25 03:59 26.48219 -132.98541 32091 ft 446 kts 258°
2026-04-25 04:00 26.46966 -133.05315 32089 ft 446 kts 258°
2026-04-25 04:00 26.45709 -133.12089 32086 ft 446 kts 258°
2026-04-25 04:01 26.44447 -133.18874 32087 ft 446 kts 258°
2026-04-25 04:01 26.43183 -133.25652 32091 ft 446 kts 258°
2026-04-25 04:02 26.41913 -133.32441 32084 ft 446 kts 258°
2026-04-25 04:02 26.40640 -133.39230 32095 ft 447 kts 258°
2026-04-25 04:03 26.39364 -133.46014 32085 ft 447 kts 258°
2026-04-25 04:03 26.38093 -133.52755 32088 ft 447 kts 258°
2026-04-25 04:04 26.36809 -133.59549 32090 ft 448 kts 258°
2026-04-25 04:04 26.35520 -133.66346 32086 ft 448 kts 258°
2026-04-25 04:05 26.34228 -133.73145 32086 ft 448 kts 258°
2026-04-25 04:05 26.32930 -133.79952 32079 ft 449 kts 258°
2026-04-25 04:06 26.31629 -133.86762 32088 ft 449 kts 258°
2026-04-25 04:06 26.30323 -133.93573 32084 ft 449 kts 258°
2026-04-25 04:07 26.29014 -134.00386 32086 ft 449 kts 258°
2026-04-25 04:07 26.27710 -134.07154 32086 ft 450 kts 258°
2026-04-25 04:08 26.26392 -134.13977 32084 ft 450 kts 258°
2026-04-25 04:08 26.25070 -134.20802 32086 ft 450 kts 258°
2026-04-25 04:09 26.23745 -134.27622 32086 ft 450 kts 258°
2026-04-25 04:09 26.22416 -134.34448 32090 ft 451 kts 258°
2026-04-25 04:10 26.21092 -134.41225 32084 ft 450 kts 258°
2026-04-25 04:10 26.19757 -134.48044 32084 ft 451 kts 258°
2026-04-25 04:11 26.17747 -134.58279 32086 ft 451 kts 258°
2026-04-25 04:12 26.16401 -134.65109 32084 ft 451 kts 258°
2026-04-25 04:12 26.15063 -134.71882 32087 ft 450 kts 258°
2026-04-25 04:13 26.13714 -134.78691 32085 ft 450 kts 258°
2026-04-25 04:13 26.12361 -134.85502 32089 ft 450 kts 258°
2026-04-25 04:14 26.11006 -134.92309 32083 ft 450 kts 258°
2026-04-25 04:14 26.09648 -134.99110 32085 ft 450 kts 258°
2026-04-25 04:15 26.08287 -135.05914 32086 ft 450 kts 258°
2026-04-25 04:15 26.06920 -135.12723 32089 ft 450 kts 258°
2026-04-25 04:16 26.05562 -135.19475 32083 ft 450 kts 258°
2026-04-25 04:16 26.04191 -135.26268 32085 ft 450 kts 258°
2026-04-25 04:17 26.02817 -135.33066 32086 ft 450 kts 258°
2026-04-25 04:17 26.01441 -135.39854 32088 ft 450 kts 258°
2026-04-25 04:18 26.00060 -135.46647 32087 ft 450 kts 258°
2026-04-25 04:18 25.98677 -135.53437 32089 ft 450 kts 258°
2026-04-25 04:19 25.97291 -135.60218 32086 ft 450 kts 258°
2026-04-25 04:19 25.95913 -135.66949 32090 ft 450 kts 258°
2026-04-25 04:20 25.94522 -135.73723 32089 ft 450 kts 258°
2026-04-25 04:20 25.93126 -135.80507 32091 ft 450 kts 258°
2026-04-25 04:21 25.91729 -135.87279 32088 ft 450 kts 258°
2026-04-25 04:21 25.90326 -135.94058 32088 ft 450 kts 258°
2026-04-25 04:22 25.88922 -136.00832 32085 ft 450 kts 258°
2026-04-25 04:22 25.87524 -136.07558 32091 ft 450 kts 257°
2026-04-25 04:23 25.86113 -136.14330 32083 ft 450 kts 257°
2026-04-25 04:23 25.84697 -136.21107 32095 ft 450 kts 257°
2026-04-25 04:24 25.83278 -136.27885 32091 ft 450 kts 257°
2026-04-25 04:24 25.81866 -136.34610 32087 ft 450 kts 257°
2026-04-25 04:25 25.80440 -136.41385 32087 ft 450 kts 257°
2026-04-25 04:25 25.79014 -136.48146 32087 ft 450 kts 257°
2026-04-25 04:26 25.77584 -136.54907 32088 ft 450 kts 257°
2026-04-25 04:26 25.76148 -136.61685 32088 ft 450 kts 257°
2026-04-25 04:27 25.74709 -136.68454 32083 ft 450 kts 257°
2026-04-25 04:27 25.73269 -136.75218 32086 ft 450 kts 257°
2026-04-25 04:28 25.71835 -136.81936 32079 ft 451 kts 257°
2026-04-25 04:28 25.70385 -136.88706 32084 ft 451 kts 257°
2026-04-25 04:29 25.68935 -136.95467 32082 ft 451 kts 257°
2026-04-25 04:29 25.67473 -137.02255 32100 ft 455 kts 258°
2026-04-25 04:30 25.66001 -137.09099 32089 ft 456 kts 258°
2026-04-25 04:30 25.64773 -137.14782 32085 ft 456 kts 258°
2026-04-25 04:31 25.63282 -137.21667 32080 ft 456 kts 258°
2026-04-25 04:31 25.61797 -137.28506 32081 ft 457 kts 258°
2026-04-25 04:32 25.60309 -137.35348 32079 ft 457 kts 258°
2026-04-25 04:32 25.58815 -137.42197 32074 ft 457 kts 258°
2026-04-25 04:33 25.57317 -137.49047 32075 ft 458 kts 258°
2026-04-25 04:33 25.55813 -137.55914 32076 ft 458 kts 258°
2026-04-25 04:34 25.54306 -137.62776 32077 ft 458 kts 258°
2026-04-25 04:34 25.52794 -137.69639 32080 ft 459 kts 258°
2026-04-25 04:35 25.51279 -137.76507 32079 ft 459 kts 258°
2026-04-25 04:35 25.49759 -137.83379 32076 ft 460 kts 258°
2026-04-25 04:36 25.48244 -137.90211 32075 ft 460 kts 258°
2026-04-25 04:36 25.46715 -137.97092 32075 ft 460 kts 258°
2026-04-25 04:37 25.45181 -138.03976 32072 ft 461 kts 258°
2026-04-25 04:37 25.43642 -138.10869 32071 ft 461 kts 258°
2026-04-25 04:38 25.42101 -138.17752 32072 ft 461 kts 258°
2026-04-25 04:38 25.40556 -138.24638 32074 ft 462 kts 258°
2026-04-25 04:39 25.39006 -138.31535 32075 ft 462 kts 258°
2026-04-25 04:39 25.37449 -138.38439 32077 ft 462 kts 258°
2026-04-25 04:40 25.35900 -138.45299 32070 ft 463 kts 258°
2026-04-25 04:40 25.34335 -138.52209 32071 ft 463 kts 258°
2026-04-25 04:41 25.32767 -138.59118 32073 ft 463 kts 258°
2026-04-25 04:41 25.31195 -138.66029 32073 ft 463 kts 258°
2026-04-25 04:42 25.29618 -138.72942 32074 ft 464 kts 258°
2026-04-25 04:42 25.28039 -138.79853 32070 ft 464 kts 258°
2026-04-25 04:43 25.26463 -138.86733 32070 ft 465 kts 258°
2026-04-25 04:43 25.24873 -138.93660 32072 ft 465 kts 258°
2026-04-25 04:44 25.23277 -139.00592 32068 ft 465 kts 258°
2026-04-25 04:44 25.21681 -139.07513 32068 ft 465 kts 258°
2026-04-25 04:45 25.20078 -139.14448 32070 ft 466 kts 258°
2026-04-25 04:45 25.18479 -139.21349 32071 ft 466 kts 258°
2026-04-25 04:46 25.16875 -139.28256 32069 ft 466 kts 257°
2026-04-25 04:46 25.15533 -139.34023 32072 ft 467 kts 258°
2026-04-25 04:47 25.13913 -139.40971 32070 ft 467 kts 257°
2026-04-25 04:47 25.12291 -139.47909 32067 ft 467 kts 257°
2026-04-25 04:48 25.10664 -139.54858 32067 ft 467 kts 257°
2026-04-25 04:48 25.09031 -139.61813 32070 ft 468 kts 257°
2026-04-25 04:49 25.07404 -139.68725 32071 ft 468 kts 257°
2026-04-25 04:49 25.05764 -139.75682 32070 ft 469 kts 257°
2026-04-25 04:50 25.04115 -139.82658 32072 ft 469 kts 257°
2026-04-25 04:50 25.02465 -139.89623 32069 ft 470 kts 257°
2026-04-25 04:51 25.00812 -139.96555 32070 ft 470 kts 257°
2026-04-25 04:51 24.98757 -140.03420 32070 ft 473 kts 252°
2026-04-25 04:52 24.96372 -140.10176 32068 ft 473 kts 251°
2026-04-25 04:52 24.93958 -140.16920 32070 ft 473 kts 251°
2026-04-25 04:53 24.91533 -140.23685 32071 ft 474 kts 251°
2026-04-25 04:53 24.89111 -140.30436 32071 ft 474 kts 251°
2026-04-25 04:54 24.86681 -140.37194 32069 ft 474 kts 251°
2026-04-25 04:54 24.84248 -140.43951 32067 ft 475 kts 251°
2026-04-25 04:55 24.81829 -140.50662 32068 ft 475 kts 251°
2026-04-25 04:55 24.79382 -140.57434 32070 ft 475 kts 251°
2026-04-25 04:56 24.76934 -140.64200 32066 ft 476 kts 251°
2026-04-25 04:56 24.74479 -140.70977 32070 ft 477 kts 251°
2026-04-25 04:57 24.72020 -140.77751 32071 ft 477 kts 251°
2026-04-25 04:57 24.69553 -140.84535 32079 ft 477 kts 251°
2026-04-25 04:58 24.67084 -140.91317 32081 ft 478 kts 251°
2026-04-25 04:58 24.64621 -140.98068 32077 ft 479 kts 251°
2026-04-25 04:59 24.62141 -141.04856 32075 ft 479 kts 251°
2026-04-25 04:59 24.59651 -141.11661 32076 ft 479 kts 251°
2026-04-25 05:00 24.57156 -141.18468 32078 ft 480 kts 251°
2026-04-25 05:00 24.54677 -141.25221 32086 ft 480 kts 251°
2026-04-25 05:01 24.52176 -141.32023 32082 ft 480 kts 251°
2026-04-25 05:01 24.49670 -141.38827 32079 ft 481 kts 251°
2026-04-25 05:02 24.47154 -141.45646 32071 ft 481 kts 251°
2026-04-25 05:02 24.44639 -141.52453 32078 ft 481 kts 251°
2026-04-25 05:03 24.42135 -141.59218 32085 ft 481 kts 251°
2026-04-25 05:03 24.39607 -141.66038 32080 ft 482 kts 250°
2026-04-25 05:04 24.37076 -141.72855 32077 ft 482 kts 250°
2026-04-25 05:04 24.34536 -141.79683 32078 ft 483 kts 250°
2026-04-25 05:05 24.32011 -141.86462 32077 ft 483 kts 250°
2026-04-25 05:05 24.29463 -141.93293 32078 ft 484 kts 250°
2026-04-25 05:06 24.26912 -142.00119 32078 ft 484 kts 250°
2026-04-25 05:06 24.24357 -142.06946 32074 ft 484 kts 250°
2026-04-25 05:07 24.21799 -142.13769 32081 ft 484 kts 250°
2026-04-25 05:07 24.19250 -142.20558 32077 ft 485 kts 250°
2026-04-25 05:08 24.16682 -142.27388 32078 ft 485 kts 250°
2026-04-25 05:08 24.14106 -142.34227 32077 ft 486 kts 250°
2026-04-25 05:09 24.11525 -142.41067 32079 ft 486 kts 250°
2026-04-25 05:09 24.08939 -142.47911 32074 ft 486 kts 250°
2026-04-25 05:10 24.06349 -142.54755 32077 ft 487 kts 250°
2026-04-25 05:10 24.03751 -142.61610 32068 ft 487 kts 250°
2026-04-25 05:11 24.01151 -142.68458 32074 ft 487 kts 250°
2026-04-25 05:11 23.98549 -142.75301 32076 ft 487 kts 250°
2026-04-25 05:12 23.94641 -142.85558 32074 ft 488 kts 250°
2026-04-25 05:12 23.92044 -142.92362 32063 ft 488 kts 250°
2026-04-25 05:13 23.89442 -142.99168 32075 ft 488 kts 250°
2026-04-25 05:13 23.86817 -143.06022 32075 ft 489 kts 250°
2026-04-25 05:14 23.84188 -143.12876 32079 ft 489 kts 250°
2026-04-25 05:15 23.80237 -143.23160 32077 ft 490 kts 249°
2026-04-25 05:15 23.77597 -143.30016 32082 ft 490 kts 249°
2026-04-25 05:16 23.74955 -143.36867 32064 ft 490 kts 249°
2026-04-25 05:16 23.72307 -143.43723 32072 ft 490 kts 249°
2026-04-25 05:17 23.69657 -143.50574 32072 ft 490 kts 249°
2026-04-25 05:17 23.67016 -143.57392 32073 ft 491 kts 249°
2026-04-25 05:18 23.64352 -143.64258 32072 ft 491 kts 249°
2026-04-25 05:18 23.61687 -143.71116 32071 ft 492 kts 249°
2026-04-25 05:19 23.59012 -143.77988 32077 ft 492 kts 249°
2026-04-25 05:19 23.56334 -143.84859 32077 ft 492 kts 249°
2026-04-25 05:20 23.53653 -143.91725 32075 ft 492 kts 249°
2026-04-25 05:20 23.50968 -143.98594 32076 ft 492 kts 249°
2026-04-25 05:21 23.48297 -144.05414 32073 ft 492 kts 249°
2026-04-25 05:21 23.45607 -144.12274 32074 ft 492 kts 249°
2026-04-25 05:22 23.42909 -144.19143 32078 ft 493 kts 249°
2026-04-25 05:22 23.40209 -144.26006 32076 ft 493 kts 249°
2026-04-25 05:23 23.37506 -144.32867 32075 ft 493 kts 249°
2026-04-25 05:23 23.34799 -144.39728 32072 ft 493 kts 249°
2026-04-25 05:24 23.32089 -144.46585 32070 ft 493 kts 249°
2026-04-25 05:24 23.29392 -144.53398 32073 ft 493 kts 249°
2026-04-25 05:25 23.26676 -144.60251 32071 ft 493 kts 249°
2026-04-25 05:25 23.23955 -144.67106 32074 ft 493 kts 248°
2026-04-25 05:26 23.21228 -144.73966 32070 ft 493 kts 248°
2026-04-25 05:26 23.18568 -144.80646 32070 ft 494 kts 248°
2026-04-25 05:27 23.15842 -144.87484 32072 ft 494 kts 248°
2026-04-25 05:27 23.13102 -144.94345 32074 ft 494 kts 248°
2026-04-25 05:28 23.10365 -145.01189 32069 ft 494 kts 248°
2026-04-25 05:28 23.07638 -145.07998 32072 ft 494 kts 248°
2026-04-25 05:29 23.04891 -145.14846 32065 ft 494 kts 248°
2026-04-25 05:29 23.02141 -145.21694 32070 ft 495 kts 248°
2026-04-25 05:30 22.99385 -145.28543 32069 ft 495 kts 248°
2026-04-25 05:30 22.96623 -145.35398 32067 ft 495 kts 248°
2026-04-25 05:31 22.93861 -145.42244 32067 ft 495 kts 248°
2026-04-25 05:31 22.91110 -145.49053 32069 ft 495 kts 248°
2026-04-25 05:32 22.88340 -145.55896 32068 ft 495 kts 248°
2026-04-25 05:32 22.85570 -145.62733 32069 ft 495 kts 248°
2026-04-25 05:33 22.83261 -145.68422 32070 ft 495 kts 248°
2026-04-25 05:33 22.80485 -145.75253 32065 ft 495 kts 248°
2026-04-25 05:34 22.77251 -145.83199 32068 ft 495 kts 248°
2026-04-25 05:34 22.74917 -145.88927 32068 ft 495 kts 248°
2026-04-25 05:35 22.72132 -145.95750 32066 ft 495 kts 248°
2026-04-25 05:35 22.69360 -146.02533 32070 ft 495 kts 248°
2026-04-25 05:36 22.66566 -146.09358 32069 ft 495 kts 247°
2026-04-25 05:36 22.63771 -146.16179 32066 ft 495 kts 247°
2026-04-25 05:37 22.60971 -146.22999 32066 ft 495 kts 247°
2026-04-25 05:37 22.58169 -146.29816 32067 ft 495 kts 247°
2026-04-25 05:38 22.55361 -146.36637 32069 ft 496 kts 247°
2026-04-25 05:38 22.52551 -146.43452 32069 ft 495 kts 247°
2026-04-25 05:39 22.49759 -146.50217 32068 ft 496 kts 247°
2026-04-25 05:39 22.46945 -146.57023 32068 ft 496 kts 247°
2026-04-25 05:40 22.44128 -146.63828 32070 ft 496 kts 247°
2026-04-25 05:40 22.41308 -146.70630 32065 ft 496 kts 247°
2026-04-25 05:41 22.38487 -146.77424 32064 ft 496 kts 247°
2026-04-25 05:41 22.35677 -146.84183 32064 ft 496 kts 247°
2026-04-25 05:42 22.32848 -146.90977 32068 ft 496 kts 247°
2026-04-25 05:42 22.30017 -146.97766 32069 ft 496 kts 247°
2026-04-25 05:43 22.27184 -147.04552 32070 ft 496 kts 247°
2026-04-25 05:43 22.24349 -147.11333 32065 ft 496 kts 247°
2026-04-25 05:44 22.21506 -147.18121 32066 ft 496 kts 247°
2026-04-25 05:44 22.18662 -147.24905 32064 ft 496 kts 246°
2026-04-25 05:45 22.15816 -147.31684 32067 ft 496 kts 246°
2026-04-25 05:45 22.12967 -147.38460 32067 ft 496 kts 246°
2026-04-25 05:46 22.10115 -147.45236 32068 ft 496 kts 246°
2026-04-25 05:46 22.07260 -147.52007 32067 ft 496 kts 246°
2026-04-25 05:47 22.04419 -147.58736 32065 ft 496 kts 246°
2026-04-25 05:47 22.01606 -147.65388 32062 ft 496 kts 246°
2026-04-25 05:48 21.98740 -147.72159 32065 ft 496 kts 246°
2026-04-25 05:48 21.95870 -147.78929 32064 ft 496 kts 246°
2026-04-25 05:49 21.93003 -147.85684 32065 ft 496 kts 246°
2026-04-25 05:49 21.90129 -147.92445 32061 ft 496 kts 246°
2026-04-25 05:50 21.87256 -147.99195 32064 ft 496 kts 246°
2026-04-25 05:50 21.84397 -148.05900 32062 ft 496 kts 246°
2026-04-25 05:51 21.81519 -148.12643 32061 ft 496 kts 246°
2026-04-25 05:51 21.78636 -148.19391 32063 ft 496 kts 246°
2026-04-25 05:52 21.75749 -148.26137 32066 ft 496 kts 246°
2026-04-25 05:52 21.72858 -148.32881 32065 ft 496 kts 246°
2026-04-25 05:53 21.70000 -148.39541 32057 ft 496 kts 246°
2026-04-25 05:53 21.67274 -148.46425 32071 ft 494 kts 257°
2026-04-25 05:53 21.66883 -148.50075 32090 ft 493 kts 273°
2026-04-25 05:54 21.67362 -148.53674 32088 ft 494 kts 281°
2026-04-25 05:54 21.67619 -148.57345 32084 ft 494 kts 265°
2026-04-25 05:54 21.66056 -148.64541 32065 ft 495 kts 254°
2026-04-25 05:55 21.64104 -148.71644 32057 ft 495 kts 254°
2026-04-25 05:55 21.62157 -148.78751 32056 ft 495 kts 255°
2026-04-25 05:56 21.60681 -148.85980 32052 ft 495 kts 259°
2026-04-25 05:56 21.59349 -148.93237 32058 ft 495 kts 259°
2026-04-25 05:57 21.58019 -149.00496 32056 ft 495 kts 259°
2026-04-25 05:57 21.56693 -149.07708 32055 ft 495 kts 259°
2026-04-25 05:58 21.55356 -149.14961 32057 ft 495 kts 259°
2026-04-25 05:58 21.54012 -149.22224 32060 ft 495 kts 259°
2026-04-25 05:59 21.52667 -149.29483 32057 ft 495 kts 259°
2026-04-25 05:59 21.51317 -149.36741 32065 ft 496 kts 259°
2026-04-25 06:00 21.49964 -149.44001 32061 ft 496 kts 259°
2026-04-25 06:00 21.48607 -149.51263 32061 ft 496 kts 259°
2026-04-25 06:01 21.47247 -149.58526 32062 ft 496 kts 259°
2026-04-25 06:01 21.45884 -149.65785 32066 ft 496 kts 259°
2026-04-25 06:02 21.44925 -149.70883 32061 ft 496 kts 259°
2026-04-25 06:02 21.43556 -149.78142 32066 ft 496 kts 259°
2026-04-25 06:03 21.42181 -149.85415 32069 ft 496 kts 259°
2026-04-25 06:03 21.40814 -149.92631 32070 ft 496 kts 259°
2026-04-25 06:04 21.39434 -149.99894 32067 ft 496 kts 258°
2026-04-25 06:04 21.38051 -150.07154 32065 ft 496 kts 258°
2026-04-25 06:05 21.36664 -150.14419 32067 ft 497 kts 258°
2026-04-25 06:05 21.35275 -150.21680 32068 ft 497 kts 258°
2026-04-25 06:06 21.33881 -150.28948 32065 ft 497 kts 258°
2026-04-25 06:06 21.32484 -150.36210 32067 ft 497 kts 258°
2026-04-25 06:07 21.31094 -150.43421 32066 ft 497 kts 258°
2026-04-25 06:07 21.29691 -150.50684 32067 ft 497 kts 258°
2026-04-25 06:08 21.28286 -150.57937 32070 ft 497 kts 258°
2026-04-25 06:08 21.26876 -150.65201 32067 ft 497 kts 258°
2026-04-25 06:09 21.25472 -150.72412 32068 ft 497 kts 258°
2026-04-25 06:09 21.24057 -150.79665 32065 ft 497 kts 258°
2026-04-25 06:10 21.22637 -150.86926 32062 ft 497 kts 258°
2026-04-25 06:10 21.21216 -150.94180 32064 ft 497 kts 258°
2026-04-25 06:11 21.19791 -151.01430 32059 ft 497 kts 258°
2026-04-25 06:11 21.18372 -151.08634 32061 ft 497 kts 258°
2026-04-25 06:12 21.16941 -151.15888 32063 ft 497 kts 258°
2026-04-25 06:12 21.15506 -151.23136 32064 ft 497 kts 258°
2026-04-25 06:13 21.14069 -151.30384 32063 ft 497 kts 258°
2026-04-25 06:14 21.11906 -151.41258 32062 ft 497 kts 258°
2026-04-25 06:14 21.10460 -151.48505 32062 ft 498 kts 258°
2026-04-25 06:15 21.09011 -151.55751 32065 ft 498 kts 258°
2026-04-25 06:15 21.07557 -151.63008 32065 ft 498 kts 258°
2026-04-25 06:16 21.06101 -151.70253 32063 ft 498 kts 258°
2026-04-25 06:16 21.04643 -151.77497 32063 ft 498 kts 258°
2026-04-25 06:17 21.03180 -151.84746 32062 ft 498 kts 258°
2026-04-25 06:17 21.01724 -151.91941 32063 ft 498 kts 258°
2026-04-25 06:18 21.00255 -151.99188 32063 ft 498 kts 258°
2026-04-25 06:18 20.98784 -152.06429 32063 ft 498 kts 258°
2026-04-25 06:19 20.97752 -152.11500 32065 ft 498 kts 258°
2026-04-25 06:19 20.96514 -152.17570 32065 ft 498 kts 258°
2026-04-25 06:20 20.95033 -152.24812 32064 ft 498 kts 258°
2026-04-25 06:20 20.93549 -152.32060 32064 ft 497 kts 258°
2026-04-25 06:21 20.92063 -152.39296 32064 ft 497 kts 258°
2026-04-25 06:21 20.90585 -152.46478 32065 ft 497 kts 258°
2026-04-25 06:22 20.89096 -152.53699 32064 ft 497 kts 258°
2026-04-25 06:22 20.87604 -152.60923 32066 ft 497 kts 258°
2026-04-25 06:23 20.86109 -152.68137 32066 ft 497 kts 258°
2026-04-25 06:23 20.84610 -152.75358 32064 ft 497 kts 258°
2026-04-25 06:24 20.83110 -152.82567 32066 ft 497 kts 258°
2026-04-25 06:24 20.81615 -152.89735 32069 ft 497 kts 258°
2026-04-25 06:25 20.80109 -152.96941 32070 ft 496 kts 258°
2026-04-25 06:25 20.79573 -153.00581 32074 ft 496 kts 269°
2026-04-25 06:25 20.79756 -153.04256 32081 ft 496 kts 274°
2026-04-25 06:26 20.80247 -153.11615 32068 ft 496 kts 274°
2026-04-25 06:26 20.80747 -153.18965 32066 ft 496 kts 274°
2026-04-25 06:27 20.81245 -153.26324 32068 ft 496 kts 274°
2026-04-25 06:27 20.81737 -153.33644 32068 ft 496 kts 274°
2026-04-25 06:28 20.82228 -153.41006 32067 ft 496 kts 274°
2026-04-25 06:28 20.82716 -153.48365 32073 ft 496 kts 274°
2026-04-25 06:29 20.83200 -153.55714 32073 ft 496 kts 274°
2026-04-25 06:29 20.83682 -153.63076 32072 ft 496 kts 274°
2026-04-25 06:30 20.84159 -153.70436 32073 ft 496 kts 274°
2026-04-25 06:30 20.84633 -153.77748 32075 ft 496 kts 274°
2026-04-25 06:31 20.85104 -153.85112 32076 ft 496 kts 274°
2026-04-25 06:31 20.85574 -153.92484 32076 ft 497 kts 274°
2026-04-25 06:32 20.86041 -153.99859 32078 ft 497 kts 274°
2026-04-25 06:32 20.86505 -154.07234 32076 ft 497 kts 274°
2026-04-25 06:33 20.86966 -154.14621 32077 ft 497 kts 274°
2026-04-25 06:33 20.87423 -154.22002 32081 ft 498 kts 274°
2026-04-25 06:34 20.87878 -154.29402 32080 ft 498 kts 274°
2026-04-25 06:34 20.88331 -154.36793 32082 ft 498 kts 274°
2026-04-25 06:35 20.88777 -154.44151 32083 ft 499 kts 274°
2026-04-25 06:35 20.89223 -154.51551 32082 ft 499 kts 274°
2026-04-25 06:36 20.89666 -154.58959 32082 ft 499 kts 274°
2026-04-25 06:36 20.90105 -154.66352 32081 ft 500 kts 274°
2026-04-25 06:37 20.90542 -154.73770 32086 ft 500 kts 274°
2026-04-25 06:37 20.90978 -154.81215 32087 ft 501 kts 274°
2026-04-25 06:38 20.91236 -154.85657 32084 ft 501 kts 274°
2026-04-25 06:38 20.91648 -154.92770 32086 ft 501 kts 274°
2026-04-25 06:39 20.92073 -155.00186 32088 ft 502 kts 274°
2026-04-25 06:39 20.92498 -155.07640 32089 ft 502 kts 274°
2026-04-25 06:40 20.92919 -155.15102 32093 ft 502 kts 274°
2026-04-25 06:40 20.93339 -155.22572 32091 ft 503 kts 274°
2026-04-25 06:41 20.93752 -155.30000 32092 ft 501 kts 274°
2026-04-25 06:41 20.93954 -155.33648 32085 ft 479 kts 274°
2026-04-25 06:41 20.94147 -155.37146 32088 ft 465 kts 274°
2026-04-25 06:42 20.94521 -155.43982 32089 ft 451 kts 274°
2026-04-25 06:42 20.94700 -155.47261 32088 ft 431 kts 274°
2026-04-25 06:42 20.94870 -155.50385 32089 ft 410 kts 274°
2026-04-25 06:43 20.95198 -155.56455 32099 ft 417 kts 274°
2026-04-25 06:43 20.95367 -155.59590 32111 ft 428 kts 274°
2026-04-25 06:43 20.95538 -155.62776 32100 ft 439 kts 274°
2026-04-25 06:43 20.95715 -155.66081 32100 ft 451 kts 274°
2026-04-25 06:44 20.95894 -155.69471 32099 ft 463 kts 274°
2026-04-25 06:44 20.96080 -155.72959 32102 ft 475 kts 274°
2026-04-25 06:44 20.96269 -155.76538 32110 ft 487 kts 274°
2026-04-25 06:44 20.96462 -155.80208 32118 ft 499 kts 274°
2026-04-25 06:45 20.96658 -155.83941 32065 ft 504 kts 274°
2026-04-25 06:45 20.96855 -155.87722 31362 ft 513 kts 273°
2026-04-25 06:45 20.97051 -155.91519 31598 ft 510 kts 273°
2026-04-25 06:45 20.97246 -155.95290 31876 ft 497 kts 273°
2026-04-25 06:46 20.97319 -155.98842 32001 ft 473 kts 269°
2026-04-25 06:46 20.96621 -156.05668 32089 ft 462 kts 261°
2026-04-25 06:47 20.95532 -156.12462 32017 ft 465 kts 261°
2026-04-25 06:47 20.94968 -156.15904 31301 ft 476 kts 260°
2026-04-25 06:47 20.94383 -156.19470 30590 ft 490 kts 260°
2026-04-25 06:47 20.93793 -156.23049 29836 ft 486 kts 260°
2026-04-25 06:48 20.93213 -156.26562 29022 ft 471 kts 260°
2026-04-25 06:48 20.92665 -156.29889 28257 ft 457 kts 260°
2026-04-25 06:48 20.92151 -156.33002 27525 ft 445 kts 260°
2026-04-25 06:48 20.91671 -156.35910 26853 ft 438 kts 260°
2026-04-25 06:49 20.91228 -156.39004 26142 ft 434 kts 269°
2026-04-25 06:49 20.91282 -156.42179 25462 ft 432 kts 275°
2026-04-25 06:49 20.91539 -156.45404 24756 ft 426 kts 276°
2026-04-25 06:49 20.91930 -156.48552 24087 ft 427 kts 281°
2026-04-25 06:50 20.92491 -156.51657 23553 ft 421 kts 282°
2026-04-25 06:50 20.92866 -156.53668 23346 ft 412 kts 282°
2026-04-25 06:50 20.93366 -156.56298 23218 ft 402 kts 282°
2026-04-25 06:50 20.93752 -156.58304 23168 ft 404 kts 282°
2026-04-25 06:51 20.94143 -156.60344 23144 ft 408 kts 282°
2026-04-25 06:51 20.94716 -156.63345 23124 ft 414 kts 282°
2026-04-25 06:51 20.95293 -156.66361 23119 ft 414 kts 282°
2026-04-25 06:51 20.95866 -156.69373 23114 ft 412 kts 282°
2026-04-25 06:52 20.96441 -156.72388 23045 ft 415 kts 282°
2026-04-25 06:52 20.97019 -156.75424 22868 ft 415 kts 282°
2026-04-25 06:52 20.97592 -156.78439 22685 ft 411 kts 282°
2026-04-25 06:52 20.98145 -156.81350 22513 ft 409 kts 282°
2026-04-25 06:53 20.98712 -156.84343 22333 ft 409 kts 282°
2026-04-25 06:53 20.99277 -156.87324 22154 ft 408 kts 282°
2026-04-25 06:53 20.99839 -156.90292 21979 ft 406 kts 282°
2026-04-25 06:53 21.00397 -156.93247 21799 ft 405 kts 282°
2026-04-25 06:54 21.00948 -156.96158 21627 ft 405 kts 282°
2026-04-25 06:54 21.01506 -156.99117 21458 ft 404 kts 282°
2026-04-25 06:54 21.02060 -157.02057 21285 ft 402 kts 282°
2026-04-25 06:54 21.02611 -157.04981 21117 ft 401 kts 282°
2026-04-25 06:55 21.03161 -157.07904 20945 ft 400 kts 282°
2026-04-25 06:55 21.03710 -157.10826 20776 ft 400 kts 282°
2026-04-25 06:55 21.04258 -157.13741 20607 ft 399 kts 282°
2026-04-25 06:55 21.04802 -157.16642 20439 ft 397 kts 282°
2026-04-25 06:56 21.05344 -157.19532 20273 ft 395 kts 282°
2026-04-25 06:56 21.05885 -157.22422 20105 ft 395 kts 282°
2026-04-25 06:56 21.06423 -157.25299 19938 ft 394 kts 282°
2026-04-25 06:56 21.06955 -157.28147 19772 ft 393 kts 282°
2026-04-25 06:57 21.07491 -157.31013 19607 ft 391 kts 282°
2026-04-25 06:57 21.08003 -157.33762 19448 ft 390 kts 282°
2026-04-25 06:57 21.08534 -157.36612 19283 ft 390 kts 282°
2026-04-25 06:57 21.09064 -157.39460 19119 ft 389 kts 282°
2026-04-25 06:58 21.09592 -157.42296 18956 ft 388 kts 282°
2026-04-25 06:58 21.10117 -157.45121 18796 ft 386 kts 282°
2026-04-25 06:58 21.10640 -157.47938 18636 ft 386 kts 282°
2026-04-25 06:58 21.11158 -157.50728 18482 ft 385 kts 282°
2026-04-25 06:59 21.11676 -157.53526 18315 ft 384 kts 282°
2026-04-25 06:59 21.12196 -157.56336 18128 ft 382 kts 282°
2026-04-25 06:59 21.12712 -157.59126 17954 ft 381 kts 282°
2026-04-25 06:59 21.13225 -157.61907 17777 ft 381 kts 282°
2026-04-25 07:00 21.13738 -157.64685 17593 ft 379 kts 282°
2026-04-25 07:00 21.14243 -157.67421 17415 ft 377 kts 282°
2026-04-25 07:00 21.14750 -157.70175 17240 ft 376 kts 282°
2026-04-25 07:00 21.15256 -157.72922 17066 ft 376 kts 282°
2026-04-25 07:01 21.15760 -157.75665 16892 ft 375 kts 282°
2026-04-25 07:01 21.16262 -157.78397 16719 ft 373 kts 283°
2026-04-25 07:01 21.16762 -157.81120 16550 ft 371 kts 283°
2026-04-25 07:01 21.17260 -157.83838 16381 ft 371 kts 283°
2026-04-25 07:02 21.17757 -157.86546 16208 ft 370 kts 283°
2026-04-25 07:02 21.18251 -157.89250 16038 ft 369 kts 283°
2026-04-25 07:02 21.18863 -157.91905 15877 ft 365 kts 291°
2026-04-25 07:02 21.19741 -157.94243 15722 ft 364 kts 295°
2026-04-25 07:03 21.20783 -157.96712 15563 ft 363 kts 297°
2026-04-25 07:03 21.21839 -157.99121 15408 ft 360 kts 297°
2026-04-25 07:03 21.23005 -158.01483 15417 ft 358 kts 302°
2026-04-25 07:03 21.24269 -158.03797 15423 ft 361 kts 302°
2026-04-25 07:04 21.25550 -158.06115 15419 ft 363 kts 303°
2026-04-25 07:04 21.26843 -158.08434 15356 ft 360 kts 303°
2026-04-25 07:04 21.28123 -158.10729 14950 ft 357 kts 303°
2026-04-25 07:04 21.29395 -158.13009 14422 ft 355 kts 303°
2026-04-25 07:05 21.30653 -158.15270 13887 ft 352 kts 303°
2026-04-25 07:05 21.31901 -158.17512 13309 ft 348 kts 303°
2026-04-25 07:05 21.33138 -158.19735 12732 ft 345 kts 302°
2026-04-25 07:05 21.34369 -158.21949 12404 ft 344 kts 302°
2026-04-25 07:06 21.35582 -158.24133 12249 ft 338 kts 302°
2026-04-25 07:06 21.36787 -158.26300 12176 ft 339 kts 302°
2026-04-25 07:06 21.37993 -158.28472 12141 ft 339 kts 302°
2026-04-25 07:06 21.39201 -158.30650 12124 ft 339 kts 303°
2026-04-25 07:07 21.39999 -158.32089 12122 ft 339 kts 303°
2026-04-25 07:07 21.41597 -158.34969 12114 ft 339 kts 303°
2026-04-25 07:07 21.42803 -158.37144 12109 ft 339 kts 303°
2026-04-25 07:07 21.44010 -158.39320 12095 ft 338 kts 303°
2026-04-25 07:08 21.45211 -158.41491 12104 ft 338 kts 303°
2026-04-25 07:08 21.46414 -158.43663 12107 ft 338 kts 303°
2026-04-25 07:08 21.47616 -158.45834 12106 ft 338 kts 303°
2026-04-25 07:08 21.48816 -158.48003 12107 ft 338 kts 303°
2026-04-25 07:09 21.49610 -158.49439 12106 ft 337 kts 303°
2026-04-25 07:09 21.50810 -158.51608 12106 ft 337 kts 303°
2026-04-25 07:09 21.52007 -158.53775 12107 ft 337 kts 303°
2026-04-25 07:09 21.53203 -158.55940 12096 ft 337 kts 303°
2026-04-25 07:10 21.54402 -158.58111 11938 ft 337 kts 303°
2026-04-25 07:10 21.55594 -158.60270 11771 ft 334 kts 303°
2026-04-25 07:10 21.56787 -158.62430 11609 ft 337 kts 303°
2026-04-25 07:10 21.57968 -158.64573 11427 ft 332 kts 303°
2026-04-25 07:11 21.59204 -158.66808 11369 ft 361 kts 303°
2026-04-25 07:11 21.60502 -158.69165 11375 ft 378 kts 303°
2026-04-25 07:11 21.61853 -158.71623 11377 ft 383 kts 303°
2026-04-25 07:11 21.63199 -158.74068 11376 ft 376 kts 303°
2026-04-25 07:12 21.64503 -158.76438 11336 ft 360 kts 303°
2026-04-25 07:12 21.66958 -158.80900 10850 ft 334 kts 303°
2026-04-25 07:12 21.68128 -158.83028 10412 ft 328 kts 303°
2026-04-25 07:13 21.69281 -158.85124 9582 ft 323 kts 303°
2026-04-25 07:13 21.70406 -158.87178 9128 ft 313 kts 303°
2026-04-25 07:13 21.71470 -158.89113 8909 ft 301 kts 303°
2026-04-25 07:13 21.72511 -158.91007 8635 ft 287 kts 304°
2026-04-25 07:14 21.73445 -158.92877 8096 ft 284 kts 295°
2026-04-25 07:14 21.74078 -158.94900 7429 ft 286 kts 289°
2026-04-25 07:14 21.74565 -158.96951 6822 ft 287 kts 286°
2026-04-25 07:14 21.75014 -158.99079 6465 ft 289 kts 285°
2026-04-25 07:15 21.75398 -159.01175 6151 ft 289 kts 281°
2026-04-25 07:15 21.75639 -159.03322 5832 ft 288 kts 279°
2026-04-25 07:15 21.75849 -159.05475 5481 ft 289 kts 278°
2026-04-25 07:15 21.76052 -159.07606 5256 ft 286 kts 279°
2026-04-25 07:16 21.76235 -159.09617 5176 ft 255 kts 279°
2026-04-25 07:16 21.76406 -159.11415 5081 ft 229 kts 279°
2026-04-25 07:16 21.76562 -159.13038 4940 ft 210 kts 279°
2026-04-25 07:16 21.76705 -159.14557 4723 ft 198 kts 279°
2026-04-25 07:17 21.76842 -159.15999 4505 ft 189 kts 280°
2026-04-25 07:17 21.76963 -159.17316 4327 ft 185 kts 281°
2026-04-25 07:17 21.77087 -159.18608 4227 ft 185 kts 281°
2026-04-25 07:17 21.77219 -159.19989 4184 ft 187 kts 281°
2026-04-25 07:18 21.77355 -159.21384 4153 ft 188 kts 280°
2026-04-25 07:18 21.77485 -159.22797 4090 ft 193 kts 279°
2026-04-25 07:18 21.77613 -159.24220 3909 ft 188 kts 279°
2026-04-25 07:18 21.77850 -159.25302 3770 ft 179 kts 306°
2026-04-25 07:19 21.78700 -159.26199 3611 ft 173 kts 333°
2026-04-25 07:19 21.79734 -159.26843 3448 ft 169 kts 341°
2026-04-25 07:19 21.80811 -159.27345 3289 ft 167 kts 345°
2026-04-25 07:19 21.81866 -159.27788 3209 ft 161 kts 346°
2026-04-25 07:20 21.82930 -159.28216 3186 ft 165 kts 346°
2026-04-25 07:20 21.84020 -159.28661 3164 ft 167 kts 345°
2026-04-25 07:20 21.85092 -159.29104 3112 ft 166 kts 345°
2026-04-25 07:20 21.86170 -159.29551 2949 ft 165 kts 345°
2026-04-25 07:21 21.87217 -159.29982 2781 ft 162 kts 345°
2026-04-25 07:21 21.88275 -159.30412 2620 ft 164 kts 345°
2026-04-25 07:21 21.89330 -159.30882 2410 ft 168 kts 335°
2026-04-25 07:21 21.90280 -159.31555 2169 ft 154 kts 348°
2026-04-25 07:22 21.91265 -159.31820 2156 ft 158 kts 353°
2026-04-25 07:22 21.92298 -159.32109 2159 ft 147 kts 349°
2026-04-25 07:22 21.92885 -159.32321 2110 ft 135 kts 347°
2026-04-25 07:22 21.93720 -159.32652 1700 ft 139 kts 347°
2026-04-25 07:23 21.94733 -159.33050 1452 ft 170 kts 345°
2026-04-25 07:23 21.95873 -159.33516 677 ft 181 kts 348°
2026-04-25 07:23 21.97017 -159.33536 340 ft 160 kts
2026-04-25 07:23 21.98043 -159.33689 103 ft 108 kts 284°
2026-04-25 07:24 21.98652 -159.33739 89 ft 85 kts 345°